Overview Statistics Trail Chart Weather Telemetry Raw packets
 

This is the latest recevied weather packets stored in our database for station/object EA8BQU-10. If no packets are shown the sender has not sent any weather packets the latest 10 day(s).

<< 20 21 22 23 24 25 26 >>
Time Temp. Humidity Pressure Rain* Wind** Luminosity Snow
1788209844 24.44° C 100% 1019.3 hPa - - - -
1788209154 25° C 100% 1019.1 hPa - - - -
1788208945 25° C 100% 1019.1 hPa - - - -
1788208040 25° C 100% 1019 hPa - - - -
1788207140 25° C 100% 1018.8 hPa - - - -
1788206239 25° C 100% 1018.5 hPa - - - -
1788205339 25° C 100% 1018.5 hPa - - - -
1788204439 25° C 100% 1018.5 hPa - - - -
1788203539 25.56° C 100% 1018.3 hPa - - - -
1788202639 25.56° C 100% 1018.4 hPa - - - -
1788201937 26.11° C 100% 1018.5 hPa - - - -
1788201738 26.11° C 100% 1018.5 hPa - - - -
1788200838 26.67° C 100% 1018.3 hPa - - - -
1788199938 26.67° C 100% 1018 hPa - - - -
1788199038 27.22° C 100% 1018.4 hPa - - - -
1788198137 27.78° C 100% 1018.2 hPa - - - -
1788197237 27.78° C 100% 1018.3 hPa - - - -
1788196339 28.33° C 100% 1018.4 hPa - - - -
1788195439 27.78° C 100% 1018.2 hPa - - - -
1788194538 28.33° C 100% 1018.2 hPa - - - -
1788193638 27.78° C 100% 1018.4 hPa - - - -
1788192738 27.78° C 100% 1018.6 hPa - - - -
1788191838 27.78° C 100% 1018.6 hPa - - - -
1788190938 27.78° C 100% 1018.6 hPa - - - -
1788190038 27.78° C 100% 1018.5 hPa - - - -

* Rain since midnight (hover to see other rain measurements)
** Current wind speed in m/s (hover to see current wind gust speed)